Regional Weather Roundup
Issued by NWS

Home | Current Version | Previous Version | Graphics & Text | Print | Product List | Glossary On
Versions: 1 2 3 4 5 6 7 8 9 10 11 12 13 14 15 16 17 18 19 20 21 22 23 24 25 26 27 28 29 30 31 32 33 34 35 36 37 38 39 40 41 42 43 44 45 46 47 48 49 50
000
ASUS43 KBIS 041610
RWRND

NORTH DAKOTA REGIONAL WEATHER ROUNDUP
NATIONAL WEATHER SERVICE BISMARCK ND
1000 AM CST WED MAR 04 2015

NOTE: "FAIR" INDICATES FEW OR NO CLOUDS BELOW 12,000 FEET WITH NO
SIGNIFICANT WEATHER AND/OR OBSTRUCTIONS TO VISIBILITY.


NDZ001>003-009>011-017-041700-
NORTHWEST NORTH DAKOTA

CITY           SKY/WX    TMP DP  RH WIND       PRES   REMARKS
WILLISTON      SUNNY     -6 -17  59 NW10      30.33R WCI -24
MINOT          SUNNY     -9 -19  61 NW16      30.29R WCI -32
MINOT AFB      SUNNY    -10 -18  67 NW16      30.29R WCI -33
$$

NDZ018>021-031>035-040>046-041700-
SOUTHWEST NORTH DAKOTA

CITY           SKY/WX    TMP DP  RH WIND       PRES   REMARKS
BISMARCK       MOSUNNY   -3 -15  56 N22G29    30.31R WCI -27
DICKINSON      CLOUDY    -1 -11  62 NW20      30.22R WCI -23
GARRISON         N/A     -9 -18  64 NW23      30.28R WCI -35
HETTINGER ARPT CLOUDY     0  -9  65 NW16G25   30.23R WCI -20
$$

NDZ004>008-012>016-024-026-027-054-041700-
NORTHEAST NORTH DAKOTA

CITY           SKY/WX    TMP DP  RH WIND       PRES   REMARKS
GRAND FORKS    MOSUNNY   -3 -14  59 NW21      30.27R WCI -26
GRND FRKS AFB  SUNNY     -3 -16  54 NW17      30.26R WCI -24
DEVILS LAKE    SUNNY     -8 -18  59 NW17      30.23R WCI -31
$$

NDZ022-023-025-028>030-036>039-047>053-041700-
SOUTHEAST NORTH DAKOTA

CITY           SKY/WX    TMP DP  RH WIND       PRES   REMARKS
FARGO          MOSUNNY    0 -11  59 NW18      30.27R WCI -21
JAMESTOWN      PTSUNNY   -5 -14  65 NW22      30.24R WCI -30
$$



USA.gov is the U.S. government's official web portal to all federal, state and local government web resources and services.